Location: River House Observatory
(37.8577°N, 76.3548°W)
Time: 13:22:29
(UTC-05:00)

NOSS 3-1 (C) - Visible Passes

Search period start: 04 December 2016 00:00
Search period end: 14 December 2016 00:00
Orbit: 843 x 1366 km, 63.4° (Epoch: 27 November)

Date Brightness Start Highest point End Pass type
(mag) Time Alt. Az. Time Alt. Az. Time Alt. Az.
04 Dec 6.4 06:16:24 10° SSE 06:20:17 19° ESE 06:24:23 10° ENE visible
04 Dec 5.6 17:28:44 10° NW 17:35:58 42° WSW 17:43:42 10° S visible
05 Dec 7.3 18:38:35 10° W 18:40:41 11° WSW 18:42:49 10° WSW visible
06 Dec 4.7 06:34:32 10° S 06:39:58 46° ESE 06:45:56 10° NE visible
06 Dec 6.9 17:50:24 10° WNW 17:55:50 20° WSW 18:01:31 10° SSW visible
07 Dec 5.7 05:50:22 10° SSE 05:55:02 26° ESE 06:00:02 10° NE visible
07 Dec 6.2 17:04:04 10° NW 17:10:51 33° WSW 17:18:04 10° S visible
08 Dec 6.4 05:07:23 10° SE 05:10:14 14° ESE 05:13:12 10° ENE visible
09 Dec 3.9 06:09:12 10° SSW 06:14:51 63° ESE 06:21:06 10° NE visible
09 Dec 7.1 17:26:29 10° WNW 17:30:37 15° WSW 17:34:53 10° SW visible
10 Dec 5.0 05:24:40 10° S 05:29:50 36° ESE 05:35:26 10° NE visible
11 Dec 5.8 04:40:55 10° SSE 04:44:57 20° ESE 04:49:13 10° ENE visible
11 Dec 3.5 06:29:22 10° SW 06:35:05 59° NW 06:41:26 10° NNE visible
12 Dec 3.4 05:44:02 10° SSW 05:49:47 85° ESE 05:56:10 10° NE visible
13 Dec 4.2 04:59:11 10° S 05:04:39 49° ESE 05:10:41 10° NE visible
